This is the latest recevied weather packets stored in our database for station/object MM1PTT-13. If no packets are shown the sender has not sent any weather packets the latest 1 day(s).
| Time | Temp. | Humidity | Pressure | Rain* | Wind** | Luminosity | Snow |
|---|---|---|---|---|---|---|---|
| 1778026842 | 6.11° C | 71% | 988.5 hPa | 0 mm | 1.34 m/s, 71° | 0 W/m² | - |
| 1778026543 | 6.11° C | 71% | 988.5 hPa | 0 mm | 0.45 m/s, 64° | 0 W/m² | - |
| 1778026243 | 6.11° C | 71% | 988.5 hPa | 0 mm | 1.34 m/s, 49° | 0 W/m² | - |
| 1778025942 | 6.11° C | 71% | 988.1 hPa | 0 mm | 0.89 m/s, 26° | 0 W/m² | - |
| 1778025643 | 6.11° C | 71% | 988.5 hPa | 0 mm | 0.89 m/s, 48° | 0 W/m² | - |
| 1778025343 | 6.11° C | 72% | 988.5 hPa | 0 mm | 0.89 m/s, 28° | 0 W/m² | - |
| 1778025043 | 6.11° C | 72% | 988.5 hPa | 0 mm | 0.45 m/s, 54° | 0 W/m² | - |
| 1778024742 | 6.11° C | 73% | 988.5 hPa | 0 mm | 0.89 m/s, 52° | 0 W/m² | - |
| 1778024442 | 6.11° C | 72% | 988.5 hPa | 0 mm | 0.89 m/s, 34° | 0 W/m² | - |
| 1778024142 | 6.11° C | 73% | 988.5 hPa | 0 mm | 0 m/s | 0 W/m² | - |
| 1778023843 | 6.11° C | 72% | 988.5 hPa | 0 mm | 0.45 m/s, 92° | 0 W/m² | - |
| 1778023542 | 6.11° C | 72% | 988.5 hPa | 0 mm | 1.34 m/s, 160° | 0 W/m² | - |
| 1778023242 | 6.11° C | 72% | 988.5 hPa | 0 mm | 0 m/s | 0 W/m² | - |
| 1778022943 | 6.11° C | 72% | 988.5 hPa | 0 mm | 0.89 m/s, 30° | 0 W/m² | - |
| 1778022642 | 6.11° C | 71% | 988.8 hPa | 0 mm | 0.45 m/s, 16° | 0 W/m² | - |
| 1778022345 | 6.11° C | 72% | 988.5 hPa | 0 mm | 0.45 m/s, 12° | 0 W/m² | - |
| 1778022042 | 6.11° C | 72% | 988.5 hPa | 0 mm | 0 m/s | 0 W/m² | - |
| 1778021742 | 6.11° C | 72% | 988.5 hPa | 0 mm | 0.89 m/s, 17° | 0 W/m² | - |
| 1778021443 | 6.11° C | 72% | 988.5 hPa | 0 mm | 0.45 m/s, 52° | 0 W/m² | - |
| 1778021143 | 6.11° C | 71% | 988.8 hPa | 0 mm | 0.89 m/s, 24° | 0 W/m² | - |
| 1778020842 | 6.67° C | 71% | 988.8 hPa | 0 mm | 0.89 m/s, 72° | 0 W/m² | - |
| 1778020542 | 6.67° C | 70% | 988.8 hPa | 0 mm | 0 m/s | 0 W/m² | - |
| 1778020245 | 6.67° C | 70% | 988.8 hPa | 0 mm | 0.45 m/s, 32° | 0 W/m² | - |
| 1778019945 | 6.67° C | 70% | 988.8 hPa | 0 mm | 0.89 m/s, 45° | 0 W/m² | - |
| 1778019643 | 6.67° C | 69% | 988.8 hPa | 0 mm | 1.34 m/s, 35° | 0 W/m² | - |
* Rain latest hour (hover to see other rain measurements)
** Current wind speed in m/s (hover to see current wind gust speed)